IK3ZGB Weather Reports


Display with metric or nautical units.
time (UTC)temp
F
wind
direction
speed
MPH
gust
MPH
rain 1hr
in
rain 24hr
in
rain mn
in
humidity
%
barometer
mb
20260507162850 68 0.0 0.0 0.00 0.00 0.00 66 1013.6
20260507161845 68 0.0 0.0 0.00 0.00 0.00 66 1013.6
20260507160845 68 0.0 0.0 0.00 0.00 0.00 65 1013.6
20260507155845 68 0.0 0.0 0.00 0.00 0.00 66 1013.5
20260507154844 68 0.0 0.0 0.00 0.00 0.00 66 1013.3
20260507153844 68 0.0 0.0 0.00 0.00 0.00 66 1013.4
20260507152845 68 0.0 0.0 0.00 0.00 0.00 66 1013.1
20260507151846 68 0.0 0.0 0.00 0.00 0.00 66 1013.2
20260507150845 69 0.0 0.0 0.00 0.00 0.00 65 1013.3
20260507145849 69 0.0 0.0 0.00 0.00 0.00 66 1013.1
20260507144844 69 0.0 0.0 0.00 0.00 0.00 68 1013.3
20260507143845 68 0.0 0.0 0.00 0.00 0.00 68 1013.1
20260507142845 68 0.0 0.0 0.00 0.00 0.00 67 1013.4
20260507141845 69 0.0 0.0 0.00 0.00 0.00 67 1013.3
20260507140852 69 0.0 0.0 0.00 0.00 0.00 71 1013.4
20260507135847 68 0.0 0.0 0.00 0.00 0.00 74 1013.5
20260507134844 67 0.0 0.0 0.00 0.00 0.00 74 1013.7
20260507133848 66 0.0 0.0 0.00 0.00 0.00 77 1013.3
20260507132845 65 0.0 0.0 0.00 0.00 0.00 78 1013.5
20260507131850 65 0.0 0.0 0.00 0.00 0.00 76 1013.9
20260507130844 64 0.0 0.0 0.00 0.00 0.00 72 1013.6
20260507125845 63 0.0 0.0 0.00 0.00 0.00 74 1013.9
20260507124845 64 0.0 0.0 0.00 0.00 0.00 74 1013.3
20260507123844 67 0.0 0.0 0.00 0.00 0.00 71 1012.9
20260507122845 71 0.0 0.0 0.00 0.00 0.00 66 1013.0
20260507121844 71 0.0 0.0 0.00 0.00 0.00 63 1012.9
20260507120844 73 0.0 0.0 0.00 0.00 0.00 62 1013.0
20260507115845 73 0.0 0.0 0.00 0.00 0.00 62 1013.1
20260507114848 74 0.0 0.0 0.00 0.00 0.00 64 1013.5
20260507113845 72 0.0 0.0 0.00 0.00 0.00 63 1013.0
20260507112845 73 0.0 0.0 0.00 0.00 0.00 64 1013.4
20260507111845 73 0.0 0.0 0.00 0.00 0.00 63 1013.3
20260507110846 74 0.0 0.0 0.00 0.00 0.00 61 1013.4
20260507105844 73 0.0 0.0 0.00 0.00 0.00 62 1013.3
20260507104843 73 0.0 0.0 0.00 0.00 0.00 62 1013.6
20260507103845 71 0.0 0.0 0.00 0.00 0.00 62 1013.8
20260507102845 72 0.0 0.0 0.00 0.00 0.00 62 1013.8
20260507101845 73 0.0 0.0 0.00 0.00 0.00 62 1014.0
20260507100845 74 0.0 0.0 0.00 0.00 0.00 63 1014.0
20260507095845 73 0.0 0.0 0.00 0.00 0.00 63 1013.8
20260507094844 72 0.0 0.0 0.00 0.00 0.00 62 1013.8
20260507093844 73 0.0 0.0 0.00 0.00 0.00 62 1014.1
20260507092843 73 0.0 0.0 0.00 0.00 0.00 63 1014.0
20260507091845 72 0.0 0.0 0.00 0.00 0.00 63 1013.9
20260507090844 72 0.0 0.0 0.00 0.00 0.00 63 1014.1
20260507085845 74 0.0 0.0 0.00 0.00 0.00 63 1014.2
20260507084845 74 0.0 0.0 0.00 0.00 0.00 64 1014.3
20260507083844 74 0.0 0.0 0.00 0.00 0.00 65 1014.1
20260507082846 73 0.0 0.0 0.00 0.00 0.00 64 1014.2
20260507081844 74 0.0 0.0 0.00 0.00 0.00 65 1013.9
20260507080844 74 0.0 0.0 0.00 0.00 0.00 66 1014.1
20260507075845 72 0.0 0.0 0.00 0.00 0.00 67 1014.2
20260507074844 73 0.0 0.0 0.00 0.00 0.00 67 1014.2
20260507073844 73 0.0 0.0 0.00 0.00 0.00 68 1014.3
20260507072844 73 0.0 0.0 0.00 0.00 0.00 69 1014.2
20260507071845 72 0.0 0.0 0.00 0.00 0.00 68 1014.4
20260507070844 72 0.0 0.0 0.00 0.00 0.00 68 1014.3
20260507065844 71 0.0 0.0 0.00 0.00 0.00 70 1014.1
20260507064845 70 0.0 0.0 0.00 0.00 0.00 69 1013.9
20260507063844 70 0.0 0.0 0.00 0.00 0.00 71 1013.9
20260507062845 69 0.0 0.0 0.00 0.00 0.00 71 1014.3
20260507061845 68 0.0 0.0 0.00 0.00 0.00 72 1014.4
20260507060845 65 0.0 0.0 0.00 0.00 0.00 72 1014.5
20260507055844 63 0.0 0.0 0.00 0.00 0.00 73 1014.6
20260507054846 71 0.0 0.0 0.00 0.00 0.00 76 1014.3
20260507053844 58 0.0 0.0 0.00 0.00 0.00 80 1014.0
20260507052844 58 0.0 0.0 0.00 0.00 0.00 80 1014.1
20260507051845 58 0.0 0.0 0.00 0.00 0.00 80 1013.8
20260507050845 58 0.0 0.0 0.00 0.00 0.00 78 1014.1
20260507045845 59 0.0 0.0 0.00 0.00 0.00 76 1014.1
20260507044845 60 0.0 0.0 0.00 0.00 0.00 79 1013.9
20260507043845 57 0.0 0.0 0.00 0.00 0.00 81 1013.8
20260507042845 55 0.0 0.0 0.00 0.00 0.00 83 1013.8
20260507041844 54 0.0 0.0 0.00 0.00 0.00 83 1013.5
20260507040844 54 0.0 0.0 0.00 0.00 0.00 82 1013.5
20260507035844 55 0.0 0.0 0.00 0.00 0.00 83 1013.5
20260507034843 55 0.0 0.0 0.00 0.00 0.00 83 1013.0
20260507033844 55 0.0 0.0 0.00 0.00 0.00 83 1013.3
20260507032844 55 0.0 0.0 0.00 0.00 0.00 83 1013.2
20260507031845 54 0.0 0.0 0.00 0.00 0.00 83 1012.9
20260507030844 54 0.0 0.0 0.00 0.00 0.00 83 1013.1
20260507025845 55 0.0 0.0 0.00 0.00 0.00 83 1012.7
20260507024844 55 0.0 0.0 0.00 0.00 0.00 83 1012.8
20260507023845 55 0.0 0.0 0.00 0.00 0.00 83 1013.0
20260507022844 55 0.0 0.0 0.00 0.00 0.00 83 1013.3
20260507021844 55 0.0 0.0 0.00 0.00 0.00 83 1013.2
20260507020844 56 0.0 0.0 0.00 0.00 0.00 84 1013.0
20260507015844 55 0.0 0.0 0.00 0.00 0.00 83 1012.8
20260507014845 55 0.0 0.0 0.00 0.00 0.00 84 1012.7
20260507013845 56 0.0 0.0 0.00 0.00 0.00 84 1013.0
20260507012846 55 0.0 0.0 0.00 0.00 0.00 84 1012.7
20260507011844 56 0.0 0.0 0.00 0.00 0.00 83 1012.7
20260507010845 56 0.0 0.0 0.00 0.00 0.00 83 1012.9
20260507005845 56 0.0 0.0 0.00 0.00 0.00 84 1013.0
20260507004844 57 0.0 0.0 0.00 0.00 0.00 83 1012.9
20260507003844 57 0.0 0.0 0.00 0.00 0.00 83 1013.1
20260507002845 57 0.0 0.0 0.00 0.00 0.00 83 1013.0
20260507001844 57 0.0 0.0 0.00 0.00 0.00 83 1012.8
20260507000844 57 0.0 0.0 0.00 0.00 0.00 83 1012.9
20260506235844 57 0.0 0.0 0.00 0.00 0.00 83 1012.8
20260506234844 58 0.0 0.0 0.00 0.00 0.00 84 1012.8
20260506233844 58 0.0 0.0 0.00 0.00 0.00 84 1012.9
20260506232844 58 0.0 0.0 0.00 0.00 0.00 84 1013.0
20260506231845 58 0.0 0.0 0.00 0.00 0.00 84 1012.7
20260506230845 58 0.0 0.0 0.00 0.00 0.00 84 1012.8
20260506225844 58 0.0 0.0 0.00 0.00 0.00 84 1012.9
20260506224845 58 0.0 0.0 0.00 0.00 0.00 84 1012.9
20260506223844 58 0.0 0.0 0.00 0.00 0.00 84 1013.0
20260506222844 58 0.0 0.0 0.00 0.00 0.00 84 1012.9
20260506221845 58 0.0 0.0 0.00 0.00 0.00 84 1012.9
20260506220845 58 0.0 0.0 0.00 0.00 0.00 84 1012.8
20260506215844 58 0.0 0.0 0.00 0.00 0.00 84 1012.7
20260506214845 58 0.0 0.0 0.00 0.00 0.00 84 1012.4
20260506213843 58 0.0 0.0 0.00 0.00 0.00 84 1012.5
20260506212844 59 0.0 0.0 0.00 0.00 0.00 84 1012.6
20260506211844 59 0.0 0.0 0.00 0.00 0.00 83 1012.6
20260506210844 59 0.0 0.0 0.00 0.00 0.00 84 1012.5
20260506205844 59 0.0 0.0 0.00 0.00 0.00 83 1012.6
20260506204844 60 0.0 0.0 0.00 0.00 0.00 83 1012.6
20260506203844 60 0.0 0.0 0.00 0.00 0.00 84 1012.5
20260506202844 59 0.0 0.0 0.00 0.00 0.00 84 1012.6
20260506201846 60 0.0 0.0 0.00 0.00 0.00 84 1012.2
20260506200844 60 0.0 0.0 0.00 0.00 0.00 84 1012.2
20260506195845 60 0.0 0.0 0.00 0.00 0.00 84 1012.2
20260506194844 60 0.0 0.0 0.00 0.00 0.00 84 1012.2
20260506193844 60 0.0 0.0 0.00 0.00 0.00 83 1011.9
20260506192844 60 0.0 0.0 0.00 0.00 0.00 83 1011.7
20260506191844 60 0.0 0.0 0.00 0.00 0.00 83 1011.8
20260506190844 61 0.0 0.0 0.00 0.00 0.00 83 1011.8
20260506185844 61 0.0 0.0 0.00 0.00 0.00 83 1011.5
20260506184844 61 0.0 0.0 0.00 0.00 0.00 82 1011.5
20260506183844 61 0.0 0.0 0.00 0.00 0.00 83 1011.5
20260506182844 62 0.0 0.0 0.00 0.00 0.00 83 1011.4
20260506181844 62 0.0 0.0 0.00 0.00 0.00 83 1011.4
20260506180845 62 0.0 0.0 0.00 0.00 0.00 83 1011.4
20260506175845 62 0.0 0.0 0.00 0.00 0.00 83 1011.3
20260506174845 62 0.0 0.0 0.00 0.00 0.00 83 1011.2
20260506173845 62 0.0 0.0 0.00 0.00 0.00 83 1011.4
20260506172844 62 0.0 0.0 0.00 0.00 0.00 83 1011.2
20260506171843 63 0.0 0.0 0.00 0.00 0.00 82 1011.2
20260506170845 63 0.0 0.0 0.00 0.00 0.00 82 1011.2
20260506165845 63 0.0 0.0 0.00 0.00 0.00 82 1011.0
20260506164845 63 0.0 0.0 0.00 0.00 0.00 82 1011.4
20260506163844 63 0.0 0.0 0.00 0.00 0.00 83 1011.3